DAL69 KLAX-KSAN

Flight info

Callsign DAL69
Flight time 0h 44m
Altitude 13000
Route LAXX1 MZB
Aircraft B738/M-SDE2E3FGHIRWXY/LB1

Departure

Time 2026-05-07 01:59
Airport Los Angeles International Airport (KLAX)

Arrival

Time 2026-05-07 02:44
Airport San Diego International Airport (KSAN)
Time Latitude Longitude Altitude Speed Heading
2026-05-07 01:45 33.94756 -118.40194 94 ft 0 kts 109°
2026-05-07 01:52 33.94757 -118.40195 94 ft 2 kts 109°
2026-05-07 01:53 33.94761 -118.40212 96 ft 2 kts 103°
2026-05-07 01:53 33.94763 -118.40229 95 ft 2 kts 93°
2026-05-07 01:53 33.94763 -118.40245 97 ft 2 kts 67°
2026-05-07 01:53 33.94754 -118.40257 98 ft 2 kts 15°
2026-05-07 01:54 33.94744 -118.40259 99 ft 1 kts 356°
2026-05-07 01:54 33.94742 -118.40259 97 ft 0 kts 354°
2026-05-07 01:54 33.94743 -118.40259 95 ft 0 kts 354°
2026-05-07 01:56 33.94771 -118.40263 93 ft 6 kts 354°
2026-05-07 01:56 33.94815 -118.40248 97 ft 8 kts 45°
2026-05-07 01:56 33.94835 -118.40145 96 ft 18 kts 83°
2026-05-07 01:57 33.94888 -118.40080 98 ft 11 kts
2026-05-07 01:57 33.94922 -118.40015 98 ft 12 kts 83°
2026-05-07 01:57 33.94953 -118.39923 100 ft 0 kts 32°
2026-05-07 01:58 33.94954 -118.39922 101 ft 3 kts 31°
2026-05-07 01:58 33.94985 -118.39909 104 ft 9 kts
2026-05-07 01:58 33.95041 -118.39938 108 ft 9 kts 296°
2026-05-07 01:58 33.95033 -118.40047 108 ft 30 kts 263°
2026-05-07 01:59 33.94975 -118.40603 105 ft 102 kts 263°
2026-05-07 01:59 33.94858 -118.41687 178 ft 152 kts 262°
2026-05-07 01:59 33.94718 -118.42937 932 ft 151 kts 262°
2026-05-07 01:59 33.94560 -118.44223 1647 ft 158 kts 261°
2026-05-07 02:00 33.94367 -118.45576 2266 ft 176 kts 262°
2026-05-07 02:00 33.94159 -118.47164 2553 ft 206 kts 262°
2026-05-07 02:00 33.93932 -118.48967 2751 ft 229 kts 262°
2026-05-07 02:00 33.93691 -118.50922 3103 ft 247 kts 262°
2026-05-07 02:01 33.93435 -118.53043 3522 ft 263 kts 262°
2026-05-07 02:01 33.93167 -118.55248 4301 ft 267 kts 263°
2026-05-07 02:01 33.92873 -118.57471 5105 ft 272 kts 263°
2026-05-07 02:01 33.92297 -118.59669 5820 ft 282 kts 240°
2026-05-07 02:02 33.90949 -118.61395 6583 ft 289 kts 213°
2026-05-07 02:02 33.89086 -118.62330 7314 ft 293 kts 194°
2026-05-07 02:02 33.87095 -118.62914 8058 ft 297 kts 192°
2026-05-07 02:02 33.85060 -118.63474 8786 ft 303 kts 191°
2026-05-07 02:03 33.82991 -118.64046 9519 ft 308 kts 191°
2026-05-07 02:03 33.80886 -118.64637 10205 ft 314 kts 191°
2026-05-07 02:03 33.78691 -118.65257 10477 ft 336 kts 191°
2026-05-07 02:03 33.76311 -118.65569 10637 ft 355 kts 173°
2026-05-07 02:04 33.73888 -118.64816 10801 ft 368 kts 151°
2026-05-07 02:04 33.71783 -118.63023 11074 ft 375 kts 130°
2026-05-07 02:04 33.70127 -118.60588 11633 ft 377 kts 123°
2026-05-07 02:04 33.68594 -118.58026 12274 ft 380 kts 122°
2026-05-07 02:05 33.67078 -118.55419 12862 ft 381 kts 122°
2026-05-07 02:05 33.65553 -118.52777 13001 ft 392 kts 122°
2026-05-07 02:05 33.63982 -118.50032 13011 ft 402 kts 121°
2026-05-07 02:05 33.62397 -118.47256 13003 ft 404 kts 121°
2026-05-07 02:06 33.60813 -118.44476 13024 ft 403 kts 121°
2026-05-07 02:06 33.59229 -118.41696 13018 ft 403 kts 121°
2026-05-07 02:06 33.57651 -118.38925 13024 ft 402 kts 121°
2026-05-07 02:06 33.56074 -118.36157 13031 ft 402 kts 121°
2026-05-07 02:07 33.54496 -118.33385 13026 ft 402 kts 121°
2026-05-07 02:07 33.51341 -118.27839 13029 ft 403 kts 121°
2026-05-07 02:07 33.49774 -118.25052 13024 ft 403 kts 120°
2026-05-07 02:08 33.48306 -118.22197 13027 ft 402 kts 118°
2026-05-07 02:08 33.46895 -118.19307 13026 ft 402 kts 117°
2026-05-07 02:08 33.45496 -118.16408 13022 ft 402 kts 117°
2026-05-07 02:08 33.44096 -118.13514 13016 ft 402 kts 117°
2026-05-07 02:09 33.42686 -118.10627 13019 ft 401 kts 117°
2026-05-07 02:09 33.41288 -118.07786 13013 ft 401 kts 117°
2026-05-07 02:09 33.39868 -118.04916 13010 ft 401 kts 117°
2026-05-07 02:09 33.38425 -118.02012 13000 ft 401 kts 117°
2026-05-07 02:10 33.37019 -117.99190 13003 ft 400 kts 117°
2026-05-07 02:10 33.35593 -117.96330 13004 ft 400 kts 117°
2026-05-07 02:10 33.34166 -117.93473 13003 ft 400 kts 117°
2026-05-07 02:10 33.32738 -117.90615 13001 ft 400 kts 117°
2026-05-07 02:11 33.31310 -117.87758 13000 ft 400 kts 117°
2026-05-07 02:11 33.29881 -117.84902 13002 ft 400 kts 118°
2026-05-07 02:11 33.28451 -117.82046 13002 ft 400 kts 117°
2026-05-07 02:11 33.27019 -117.79189 12999 ft 401 kts 117°
2026-05-07 02:12 33.25588 -117.76336 13000 ft 400 kts 117°
2026-05-07 02:12 33.24156 -117.73483 13004 ft 400 kts 117°
2026-05-07 02:12 33.22724 -117.70631 13005 ft 400 kts 117°
2026-05-07 02:12 33.21292 -117.67782 13004 ft 400 kts 117°
2026-05-07 02:13 33.19859 -117.64934 13006 ft 400 kts 117°
2026-05-07 02:13 33.18427 -117.62089 13005 ft 398 kts 117°
2026-05-07 02:13 33.17019 -117.59299 12994 ft 387 kts 117°
2026-05-07 02:13 33.15638 -117.56563 13001 ft 383 kts 117°
2026-05-07 02:14 33.14264 -117.53837 13013 ft 384 kts 117°
2026-05-07 02:14 33.12882 -117.51097 12951 ft 386 kts 117°
2026-05-07 02:14 33.11515 -117.48389 12472 ft 384 kts 117°
2026-05-07 02:14 33.10141 -117.45672 11919 ft 380 kts 117°
2026-05-07 02:15 33.08783 -117.42989 11339 ft 376 kts 117°
2026-05-07 02:15 33.07440 -117.40337 10942 ft 368 kts 117°
2026-05-07 02:15 33.06144 -117.37786 10786 ft 353 kts 117°
2026-05-07 02:15 33.04865 -117.35351 10625 ft 342 kts 123°
2026-05-07 02:16 33.03192 -117.33373 10479 ft 337 kts 140°
2026-05-07 02:16 33.01161 -117.32039 10336 ft 332 kts 156°
2026-05-07 02:16 32.99021 -117.31130 10196 ft 322 kts 158°
2026-05-07 02:16 32.96929 -117.30285 10055 ft 313 kts 158°
2026-05-07 02:17 32.94882 -117.29457 9791 ft 309 kts 158°
2026-05-07 02:17 32.92853 -117.28625 9470 ft 307 kts 158°
2026-05-07 02:17 32.90843 -117.27792 9143 ft 305 kts 158°
2026-05-07 02:17 32.88844 -117.26959 8834 ft 303 kts 158°
2026-05-07 02:18 32.86885 -117.26140 8525 ft 301 kts 158°
2026-05-07 02:18 32.84894 -117.25285 8210 ft 299 kts 154°
2026-05-07 02:18 32.83256 -117.23897 7890 ft 292 kts 128°
2026-05-07 02:18 32.82309 -117.21833 7632 ft 282 kts 102°
2026-05-07 02:19 32.82041 -117.19573 7524 ft 271 kts 92°
2026-05-07 02:19 32.81912 -117.17345 7320 ft 272 kts 91°
2026-05-07 02:19 32.81801 -117.15084 7080 ft 276 kts 91°
2026-05-07 02:19 32.81695 -117.12792 6849 ft 279 kts 91°
2026-05-07 02:20 32.81591 -117.10492 6608 ft 278 kts 91°
2026-05-07 02:20 32.81489 -117.08199 6285 ft 277 kts 91°
2026-05-07 02:20 32.81387 -117.05948 6175 ft 269 kts 91°
2026-05-07 02:20 32.81292 -117.03760 6049 ft 261 kts 91°
2026-05-07 02:21 32.81201 -117.01649 6021 ft 251 kts 91°
2026-05-07 02:21 32.81111 -116.99581 6011 ft 251 kts 91°
2026-05-07 02:21 32.81021 -116.97484 6026 ft 258 kts 91°
2026-05-07 02:21 32.80929 -116.95313 6034 ft 267 kts 91°
2026-05-07 02:22 32.80762 -116.93073 6018 ft 279 kts 102°
2026-05-07 02:22 32.79890 -116.91014 5996 ft 282 kts 129°
2026-05-07 02:22 32.78337 -116.89613 5793 ft 281 kts 156°
2026-05-07 02:22 32.76448 -116.89161 5346 ft 278 kts 183°
2026-05-07 02:23 32.74523 -116.89435 4812 ft 280 kts 189°
2026-05-07 02:23 32.72608 -116.89823 4386 ft 279 kts 191°
2026-05-07 02:23 32.70742 -116.90212 4263 ft 266 kts 191°
2026-05-07 02:23 32.68971 -116.90582 4138 ft 251 kts 191°
2026-05-07 02:24 32.67342 -116.91133 3947 ft 239 kts 212°
2026-05-07 02:24 32.66218 -116.92483 3855 ft 229 kts 246°
2026-05-07 02:24 32.65904 -116.94280 3867 ft 224 kts 275°
2026-05-07 02:24 32.66217 -116.96079 3824 ft 224 kts 291°
2026-05-07 02:25 32.66860 -116.97735 3757 ft 218 kts 297°
2026-05-07 02:25 32.67514 -116.99310 3790 ft 208 kts 298°
2026-05-07 02:25 32.68214 -117.00802 3677 ft 206 kts 302°
2026-05-07 02:25 32.68961 -117.02261 3479 ft 208 kts 302°
2026-05-07 02:26 32.69669 -117.03751 3284 ft 205 kts 299°
2026-05-07 02:26 32.70244 -117.05266 2958 ft 204 kts 292°
2026-05-07 02:26 32.70628 -117.06904 2621 ft 203 kts 285°
2026-05-07 02:26 32.70912 -117.08527 2356 ft 195 kts 284°
2026-05-07 02:27 32.71194 -117.10021 2120 ft 175 kts 285°
2026-05-07 02:27 32.71488 -117.11341 1999 ft 172 kts 288°
2026-05-07 02:27 32.71864 -117.12877 2370 ft 211 kts 288°
2026-05-07 02:27 32.72298 -117.14638 2497 ft 230 kts 288°
2026-05-07 02:28 32.72751 -117.16451 2307 ft 223 kts 288°
2026-05-07 02:28 32.73162 -117.18140 2302 ft 204 kts 288°
2026-05-07 02:28 32.73557 -117.19697 2353 ft 191 kts 285°
2026-05-07 02:28 32.73789 -117.21308 2375 ft 208 kts 280°
2026-05-07 02:29 32.73957 -117.23108 2628 ft 237 kts 279°
2026-05-07 02:29 32.74260 -117.25072 2550 ft 241 kts 285°
2026-05-07 02:29 32.74672 -117.26982 2436 ft 233 kts 287°
2026-05-07 02:29 32.75109 -117.28790 2396 ft 224 kts 286°
2026-05-07 02:30 32.75499 -117.30580 2470 ft 228 kts 286°
2026-05-07 02:30 32.75916 -117.32493 2533 ft 250 kts 286°
2026-05-07 02:30 32.76362 -117.34516 2508 ft 256 kts 287°
2026-05-07 02:30 32.77169 -117.36373 2505 ft 254 kts 313°
2026-05-07 02:31 32.78649 -117.37474 2854 ft 254 kts 345°
2026-05-07 02:31 32.80396 -117.37524 3916 ft 248 kts
2026-05-07 02:31 32.82048 -117.37184 4979 ft 243 kts 10°
2026-05-07 02:31 32.83707 -117.36804 4960 ft 240 kts 11°
2026-05-07 02:32 32.85313 -117.36428 4988 ft 230 kts 12°
2026-05-07 02:32 32.86728 -117.35649 5009 ft 225 kts 42°
2026-05-07 02:32 32.87552 -117.34091 5007 ft 226 kts 75°
2026-05-07 02:32 32.87565 -117.32229 5038 ft 229 kts 98°
2026-05-07 02:33 32.87252 -117.30352 5028 ft 233 kts 101°
2026-05-07 02:33 32.86905 -117.28453 5024 ft 236 kts 101°
2026-05-07 02:33 32.86552 -117.26553 5020 ft 235 kts 101°
2026-05-07 02:33 32.86194 -117.24663 5026 ft 234 kts 101°
2026-05-07 02:34 32.85836 -117.22786 5014 ft 231 kts 101°
2026-05-07 02:34 32.85478 -117.20932 5013 ft 229 kts 101°
2026-05-07 02:34 32.85118 -117.19084 5018 ft 231 kts 101°
2026-05-07 02:34 32.84734 -117.17105 5048 ft 264 kts 101°
2026-05-07 02:35 32.84316 -117.14910 5031 ft 275 kts 101°
2026-05-07 02:35 32.83893 -117.12691 5028 ft 276 kts 101°
2026-05-07 02:35 32.83472 -117.10467 5028 ft 275 kts 101°
2026-05-07 02:35 32.83052 -117.08249 5017 ft 275 kts 101°
2026-05-07 02:36 32.82631 -117.06032 5019 ft 275 kts 101°
2026-05-07 02:36 32.82211 -117.03816 5014 ft 275 kts 101°
2026-05-07 02:36 32.81793 -117.01602 5031 ft 274 kts 101°
2026-05-07 02:36 32.81373 -116.99385 5015 ft 275 kts 101°
2026-05-07 02:37 32.80955 -116.97174 5013 ft 273 kts 101°
2026-05-07 02:37 32.80542 -116.94999 4998 ft 262 kts 101°
2026-05-07 02:37 32.80153 -116.92964 4989 ft 243 kts 101°
2026-05-07 02:37 32.79610 -116.91133 4996 ft 233 kts 123°
2026-05-07 02:38 32.78397 -116.89894 5019 ft 233 kts 156°
2026-05-07 02:38 32.76818 -116.89612 5030 ft 234 kts 190°
2026-05-07 02:38 32.75295 -116.90285 5041 ft 237 kts 209°
2026-05-07 02:38 32.73835 -116.91230 5018 ft 240 kts 210°
2026-05-07 02:39 32.72401 -116.92182 4856 ft 233 kts 211°
2026-05-07 02:39 32.71009 -116.93105 4567 ft 232 kts 211°
2026-05-07 02:39 32.69639 -116.94113 4148 ft 232 kts 224°
2026-05-07 02:39 32.68767 -116.95683 3896 ft 226 kts 248°
2026-05-07 02:40 32.68447 -116.97479 3818 ft 224 kts 278°
2026-05-07 02:40 32.68705 -116.99288 3706 ft 225 kts 283°
2026-05-07 02:40 32.69065 -117.01111 3379 ft 224 kts 287°
2026-05-07 02:40 32.69475 -117.02846 3025 ft 213 kts 288°
2026-05-07 02:41 32.69875 -117.04501 2696 ft 204 kts 288°
2026-05-07 02:41 32.70257 -117.06085 2376 ft 193 kts 288°
2026-05-07 02:41 32.70614 -117.07573 2100 ft 183 kts 288°
2026-05-07 02:41 32.70957 -117.09005 1762 ft 178 kts 288°
2026-05-07 02:42 32.71285 -117.10361 1552 ft 164 kts 288°
2026-05-07 02:42 32.71586 -117.11622 1315 ft 155 kts 288°
2026-05-07 02:42 32.71867 -117.12792 1098 ft 142 kts 288°
2026-05-07 02:42 32.72142 -117.13926 898 ft 144 kts 287°
2026-05-07 02:43 32.72411 -117.15060 650 ft 139 kts 287°
2026-05-07 02:43 32.72676 -117.16154 414 ft 140 kts 287°
2026-05-07 02:43 32.72939 -117.17253 218 ft 139 kts 288°
2026-05-07 02:43 32.73199 -117.18325 30 ft 128 kts 289°
2026-05-07 02:44 32.73390 -117.19104 21 ft 49 kts 286°
2026-05-07 02:44 32.73449 -117.19360 24 ft 29 kts 276°
2026-05-07 02:44 32.73406 -117.19569 22 ft 12 kts 263°
2026-05-07 02:44 32.73406 -117.19575 22 ft 0 kts 268°